Radiation Dose at Monitoring Post of Fukushima Daini Nuclear Power Station
Date,Time,MP-1(microSv/h),MP-2(microSv/h),MP-3(microSv/h),MP-4(microSv/h),MP-5(microSv/h),MP-6(microSv/h),MP-7(microSv/h),Wind Direction,Wind Velocity(m/s),Rain
2022/01/27,00:00,0.159,0.145,0.228,0.221,0.223,0.126,0.080,south,3.0,No
2022/01/27,00:10,0.158,0.147,0.227,0.221,0.224,0.126,0.080,south,2.7,No
2022/01/27,00:20,0.158,0.146,0.229,0.221,0.223,0.127,0.080,south,2.5,No
2022/01/27,00:30,0.159,0.146,0.227,0.221,0.223,0.126,0.081,south-southeast,3.5,No
2022/01/27,00:40,0.159,0.145,0.228,0.220,0.223,0.126,0.080,south,4.4,No
2022/01/27,00:50,0.160,0.146,0.229,0.220,0.223,0.127,0.080,south-southeast,5.1,No
2022/01/27,01:00,0.159,0.147,0.227,0.221,0.224,0.126,0.080,south-southeast,3.3,No
2022/01/27,01:10,0.158,0.146,0.227,0.221,0.224,0.127,0.080,south-southeast,3.0,No
2022/01/27,01:20,0.159,0.146,0.227,0.219,0.223,0.127,0.080,south-southeast,3.0,No
2022/01/27,01:30,0.159,0.146,0.227,0.219,0.223,0.126,0.079,southeast,2.1,No
2022/01/27,01:40,0.159,0.146,0.227,0.219,0.223,0.126,0.080,east-northeast,1.6,No
2022/01/27,01:50,0.158,0.146,0.228,0.220,0.222,0.126,0.080,north,0.7,No
2022/01/27,02:00,0.158,0.145,0.227,0.221,0.222,0.126,0.080,northeast,1.1,No
2022/01/27,02:10,0.158,0.146,0.227,0.219,0.222,0.126,0.080,north-northeast,0.5,No
2022/01/27,02:20,0.158,0.145,0.228,0.220,0.224,0.126,0.079,northeast,0.7,No
2022/01/27,02:30,0.159,0.146,0.227,0.220,0.222,0.125,0.079,north-northeast,0.7,No
2022/01/27,02:40,0.159,0.146,0.227,0.221,0.223,0.126,0.079,north,0.7,No
2022/01/27,02:50,0.159,0.145,0.227,0.220,0.223,0.125,0.080,east-northeast,1.0,No
2022/01/27,03:00,0.159,0.145,0.227,0.219,0.223,0.126,0.081,north-northwest,0.7,No
2022/01/27,03:10,0.159,0.146,0.227,0.220,0.223,0.126,0.080,west,1.9,No
2022/01/27,03:20,0.158,0.145,0.227,0.220,0.223,0.125,0.080,south-southwest,1.8,No
2022/01/27,03:30,0.158,0.146,0.227,0.220,0.223,0.126,0.080,south-southwest,2.1,No
2022/01/27,03:40,0.157,0.144,0.227,0.220,0.223,0.125,0.080,west,1.4,No
2022/01/27,03:50,0.158,0.146,0.227,0.220,0.223,0.125,0.079,west-southwest,1.1,No
2022/01/27,04:00,0.158,0.146,0.227,0.219,0.223,0.125,0.079,west-northwest,1.3,No
2022/01/27,04:10,0.158,0.145,0.227,0.219,0.223,0.126,0.079,northwest,1.0,No
2022/01/27,04:20,0.159,0.146,0.226,0.220,0.223,0.125,0.079,west-northwest,0.8,No
2022/01/27,04:30,0.159,0.146,0.227,0.221,0.223,0.126,0.079,west-northwest,1.0,No
2022/01/27,04:40,0.158,0.145,0.227,0.220,0.222,0.125,0.080,west-northwest,1.0,No
2022/01/27,04:50,0.158,0.146,0.226,0.218,0.222,0.125,0.079,west,0.7,No
2022/01/27,05:00,0.158,0.146,0.227,0.219,0.223,0.125,0.079,west-northwest,1.0,No
2022/01/27,05:10,0.159,0.146,0.227,0.219,0.222,0.126,0.080,west-northwest,0.7,No
2022/01/27,05:20,0.159,0.145,0.226,0.220,0.222,0.126,0.079,west-northwest,0.5,No
2022/01/27,05:30,0.158,0.146,0.226,0.219,0.222,0.126,0.080,northwest,1.3,Yes
2022/01/27,05:40,0.158,0.147,0.226,0.220,0.222,0.125,0.079,northwest,1.4,No
2022/01/27,05:50,0.158,0.146,0.227,0.220,0.222,0.126,0.079,north-northwest,1.8,No
2022/01/27,06:00,0.158,0.145,0.227,0.219,0.223,0.127,0.080,northwest,1.4,No
2022/01/27,06:10,0.159,0.146,0.227,0.219,0.222,0.126,0.080,north-northwest,2.2,No
2022/01/27,06:20,0.159,0.145,0.226,0.220,0.223,0.125,0.080,north-northwest,2.1,No
2022/01/27,06:30,0.159,0.146,0.227,0.219,0.223,0.126,0.080,northwest,2.4,No
2022/01/27,06:40,0.158,0.145,0.227,0.220,0.223,0.125,0.080,northwest,1.6,No
2022/01/27,06:50,0.158,0.144,0.227,0.220,0.224,0.125,0.080,north-northwest,3.3,No
2022/01/27,07:00,0.158,0.145,0.228,0.220,0.223,0.126,0.080,north,2.7,No
2022/01/27,07:10,0.158,0.145,0.228,0.220,0.222,0.126,0.080,north-northwest,2.2,No
2022/01/27,07:20,0.157,0.145,0.227,0.220,0.222,0.125,0.080,north-northwest,2.7,No
2022/01/27,07:30,0.159,0.146,0.228,0.220,0.223,0.125,0.080,north-northwest,5.2,No
2022/01/27,07:40,0.158,0.146,0.229,0.221,0.224,0.125,0.080,north-northwest,4.6,No
2022/01/27,07:50,0.158,0.146,0.228,0.219,0.223,0.126,0.080,north-northwest,5.2,No
2022/01/27,08:00,0.158,0.146,0.229,0.220,0.223,0.126,0.080,north-northwest,4.9,Yes
2022/01/27,08:10,0.159,0.146,0.228,0.220,0.224,0.125,0.080,north-northwest,4.3,No
2022/01/27,08:20,0.159,0.146,0.227,0.220,0.223,0.127,0.080,north-northwest,4.6,No
2022/01/27,08:30,0.158,0.145,0.227,0.221,0.223,0.125,0.080,north-northwest,3.8,No
2022/01/27,08:40,0.158,0.146,0.228,0.219,0.223,0.126,0.079,north,2.9,No
2022/01/27,08:50,0.159,0.146,0.227,0.220,0.224,0.125,0.080,north-northwest,2.9,No
2022/01/27,09:00,0.158,0.146,0.227,0.220,0.224,0.126,0.080,north-northwest,2.4,No
2022/01/27,09:10,0.158,0.146,0.228,0.221,0.224,0.126,0.079,north,1.8,No
2022/01/27,09:20,0.158,0.146,0.228,0.220,0.223,0.125,0.080,northwest,0.7,No
2022/01/27,09:30,0.159,0.145,0.227,0.220,0.223,0.126,0.080,north-northwest,2.1,No
2022/01/27,09:40,0.158,0.145,0.227,0.219,0.222,0.125,0.079,north,2.4,No
2022/01/27,09:50,0.158,0.145,0.227,0.219,0.224,0.125,0.079,north-northwest,2.7,No
2022/01/27,10:00,0.159,0.146,0.228,0.220,0.223,0.126,0.080,north-northwest,1.8,No
2022/01/27,10:10,0.159,0.145,0.228,0.219,0.223,0.126,0.080,north,1.3,No
2022/01/27,10:20,0.159,0.146,0.227,0.220,0.224,0.126,0.080,north,2.4,No
2022/01/27,10:30,0.159,0.146,0.227,0.220,0.223,0.126,0.079,north-northwest,2.4,No
2022/01/27,10:40,0.160,0.146,0.227,0.221,0.223,0.126,0.079,north-northwest,1.3,No
2022/01/27,10:50,0.158,0.146,0.226,0.221,0.224,0.126,0.079,north-northeast,1.6,No
2022/01/27,11:00,0.159,0.145,0.227,0.219,0.222,0.125,0.079,northeast,1.3,No
2022/01/27,11:10,0.159,0.145,0.229,0.219,0.223,0.126,0.080,east-northeast,1.6,No
2022/01/27,11:20,0.158,0.145,0.229,0.221,0.224,0.126,0.079,south-southeast,1.3,No
2022/01/27,11:30,0.158,0.146,0.227,0.220,0.223,0.125,0.080,west-northwest,3.8,No
2022/01/27,11:40,0.158,0.146,0.227,0.220,0.222,0.126,0.080,west-northwest,2.5,No
2022/01/27,11:50,0.158,0.145,0.228,0.221,0.224,0.126,0.081,northwest,4.4,No
2022/01/27,12:00,0.158,0.146,0.227,0.220,0.224,0.125,0.079,west-northwest,5.1,No
2022/01/27,12:10,0.158,0.146,0.228,0.220,0.223,0.125,0.080,west-northwest,4.4,No
2022/01/27,12:20,0.158,0.146,0.228,0.220,0.224,0.126,0.080,west-northwest,3.5,No
2022/01/27,12:30,0.158,0.146,0.228,0.220,0.224,0.126,0.080,west-northwest,7.2,No
2022/01/27,12:40,0.159,0.146,0.228,0.221,0.223,0.125,0.079,northwest,6.0,No
2022/01/27,12:50,0.158,0.145,0.228,0.220,0.223,0.125,0.080,west-northwest,5.2,No
2022/01/27,13:00,0.159,0.146,0.227,0.222,0.223,0.126,0.080,northwest,4.3,No
2022/01/27,13:10,0.159,0.146,0.227,0.219,0.224,0.126,0.080,west-northwest,5.5,No
2022/01/27,13:20,0.159,0.145,0.228,0.220,0.224,0.126,0.080,west-northwest,7.4,No
2022/01/27,13:30,0.159,0.146,0.228,0.219,0.223,0.126,0.081,west-northwest,4.7,No
2022/01/27,13:40,0.158,0.147,0.228,0.220,0.225,0.126,0.080,northwest,6.2,No
2022/01/27,13:50,0.160,0.147,0.229,0.219,0.223,0.126,0.080,west-northwest,4.3,No
2022/01/27,14:00,0.159,0.145,0.229,0.221,0.225,0.126,0.080,northwest,3.3,No
2022/01/27,14:10,0.159,0.147,0.228,0.221,0.224,0.126,0.080,northwest,5.7,No
2022/01/27,14:20,0.160,0.146,0.229,0.221,0.225,0.126,0.080,northwest,5.4,No
2022/01/27,14:30,0.159,0.148,0.229,0.219,0.225,0.127,0.080,west-northwest,3.5,No
2022/01/27,14:40,0.159,0.146,0.229,0.222,0.224,0.127,0.080,west,4.1,No
2022/01/27,14:50,0.160,0.146,0.229,0.222,0.225,0.126,0.081,west-northwest,3.0,No
2022/01/27,15:00,0.159,0.147,0.229,0.221,0.225,0.127,0.080,west-northwest,3.8,No
2022/01/27,15:10,0.159,0.146,0.228,0.222,0.223,0.126,0.080,west,6.2,No
2022/01/27,15:20,0.159,0.147,0.228,0.222,0.225,0.126,0.080,west-northwest,2.5,No
2022/01/27,15:30,0.159,0.146,0.229,0.220,0.224,0.126,0.081,west,6.9,No
2022/01/27,15:40,0.160,0.147,0.228,0.221,0.225,0.126,0.080,west-northwest,2.4,No
2022/01/27,15:50,0.159,0.147,0.229,0.223,0.223,0.127,0.081,west,5.5,No
2022/01/27,16:00,0.160,0.146,0.228,0.221,0.225,0.127,0.080,west-northwest,5.5,No
2022/01/27,16:10,0.159,0.147,0.229,0.222,0.224,0.127,0.080,west-northwest,6.5,No
2022/01/27,16:20,0.160,0.147,0.228,0.222,0.224,0.127,0.080,west-northwest,6.2,No
2022/01/27,16:30,0.158,0.146,0.229,0.222,0.224,0.126,0.080,west,7.2,No
2022/01/27,16:40,0.160,0.147,0.228,0.222,0.225,0.126,0.079,west,8.3,No
2022/01/27,16:50,0.160,0.146,0.229,0.221,0.224,0.126,0.080,west-northwest,7.1,No
2022/01/27,17:00,0.160,0.147,0.228,0.223,0.224,0.127,0.080,west-northwest,6.6,No
2022/01/27,17:10,0.159,0.147,0.228,0.221,0.225,0.126,0.080,west-northwest,6.6,No
2022/01/27,17:20,0.159,0.147,0.227,0.222,0.225,0.127,0.080,west-northwest,7.4,No
2022/01/27,17:30,0.158,0.147,0.229,0.221,0.224,0.126,0.080,west-northwest,4.7,No
2022/01/27,17:40,0.159,0.147,0.229,0.221,0.224,0.126,0.080,west-northwest,4.3,No
2022/01/27,17:50,0.159,0.147,0.228,0.221,0.223,0.127,0.081,west-northwest,7.1,No
2022/01/27,18:00,0.159,0.147,0.228,0.222,0.225,0.126,0.081,west-northwest,4.4,No
2022/01/27,18:10,0.160,0.147,0.227,0.221,0.224,0.127,0.081,west-northwest,5.2,No
2022/01/27,18:20,0.160,0.147,0.230,0.220,0.224,0.126,0.081,northwest,3.7,No
2022/01/27,18:30,0.160,0.146,0.229,0.221,0.224,0.126,0.080,northwest,4.4,No
2022/01/27,18:40,0.159,0.146,0.229,0.221,0.224,0.127,0.080,northwest,6.0,No
2022/01/27,18:50,0.158,0.146,0.228,0.222,0.225,0.126,0.080,northwest,6.8,No
2022/01/27,19:00,0.159,0.148,0.229,0.221,0.223,0.126,0.080,northwest,6.0,No
2022/01/27,19:10,0.159,0.147,0.229,0.221,0.224,0.126,0.081,northwest,5.2,No
2022/01/27,19:20,0.160,0.147,0.229,0.220,0.224,0.126,0.080,northwest,4.4,No
2022/01/27,19:30,0.160,0.146,0.229,0.222,0.225,0.126,0.080,northwest,4.6,No
2022/01/27,19:40,0.160,0.147,0.228,0.223,0.224,0.126,0.080,northwest,4.4,No
2022/01/27,19:50,0.159,0.146,0.229,0.221,0.224,0.126,0.080,north-northwest,3.8,No
2022/01/27,20:00,0.160,0.147,0.229,0.221,0.224,0.126,0.080,northwest,4.7,No
2022/01/27,20:10,0.159,0.146,0.230,0.222,0.224,0.127,0.081,northwest,6.3,No
2022/01/27,20:20,0.159,0.147,0.228,0.221,0.224,0.126,0.080,northwest,6.3,No
2022/01/27,20:30,0.160,0.146,0.229,0.223,0.224,0.126,0.080,northwest,5.5,No
2022/01/27,20:40,0.159,0.147,0.228,0.221,0.224,0.127,0.081,west-northwest,5.5,No
2022/01/27,20:50,0.159,0.146,0.230,0.222,0.225,0.127,0.079,northwest,5.1,No
2022/01/27,21:00,0.159,0.147,0.228,0.222,0.223,0.127,0.080,northwest,4.6,No
2022/01/27,21:10,0.160,0.146,0.229,0.222,0.224,0.126,0.080,northwest,3.5,No
2022/01/27,21:20,0.159,0.146,0.229,0.221,0.224,0.126,0.081,north,1.6,No
2022/01/27,21:30,0.160,0.146,0.229,0.221,0.223,0.126,0.080,north-northeast,1.4,No
2022/01/27,21:40,0.159,0.146,0.229,0.221,0.225,0.127,0.080,north-northeast,0.7,No
2022/01/27,21:50,0.158,0.147,0.229,0.221,0.224,0.126,0.080,north,1.0,No
2022/01/27,22:00,0.160,0.146,0.229,0.223,0.223,0.126,0.080,north-northeast,1.0,No
2022/01/27,22:10,0.160,0.146,0.228,0.221,0.224,0.127,0.080,north,1.9,No
2022/01/27,22:20,0.160,0.146,0.230,0.221,0.225,0.126,0.080,north,1.6,No
2022/01/27,22:30,0.160,0.147,0.228,0.222,0.225,0.126,0.080,north,2.4,No
2022/01/27,22:40,0.159,0.146,0.228,0.221,0.223,0.127,0.081,north-northwest,2.7,No
2022/01/27,22:50,0.160,0.146,0.230,0.223,0.224,0.126,0.081,north,2.7,No
2022/01/27,23:00,0.160,0.146,0.229,0.221,0.225,0.127,0.080,north,3.3,No
2022/01/27,23:10,0.160,0.146,0.229,0.222,0.224,0.126,0.080,north,3.8,No
2022/01/27,23:20,0.160,0.146,0.230,0.221,0.224,0.126,0.080,north,4.4,No
2022/01/27,23:30,0.158,0.146,0.229,0.223,0.223,0.127,0.080,north-northwest,4.8,No
2022/01/27,23:40,0.160,0.147,0.229,0.222,0.226,0.127,0.080,north-northwest,4.1,No
2022/01/27,23:50,0.160,0.146,0.229,0.221,0.224,0.127,0.080,north-northwest,4.3,No
